Location: Waco, TX
(31.5480°N, 97.1670°W)
Time: 15:06:31
(UTC-05:00)

ISS - Pass Details

Date: 20 September 2019
Orbit: 411 x 421 km, 51.6° (Epoch: 17 September)

Event Time Altitude Azimuth Distance (km) Brightness Sun altitude
Rises 18:52:42 0° 194° (SSW) 2,328 0.3 6.7°
Maximum altitude 18:57:37 20° 128° (SE) 1,024 -2.2 5.7°
Drops below altitude 10° 19:00:05 10° 79° (E) 1,474 -1.6 5.1°
Sets 19:02:32 0° 61° (ENE) 2,338 -0.5 4.6°
